User: anonymous   Login
Location: Unspecified
(0.0000°N, 0.0000°E)
Time: 07:09:09
(UTC+02:00)
Language:

Cosmos 1703 Rocket - Orbit

View from above orbital plane
View from above orbital plane
View from above satellite
View from above satellite

Ground track
Ground track

The orbit data is extracted from the following two-line orbital elements,

1 16263U 85108B   16270.34992888  .00000138  00000-0  13962-4 0  9994
2 16263  82.5069   1.8212 0021258 134.2560 288.8146 14.82942994665289
Epoch (UTC): 26 September 2016 08:23:53
Eccentricity: 0.0021258
inclination: 82.5069°
perigee height: 605 km
apogee height: 635 km
right ascension of ascending node: 1.8212°
argument of perigee: 134.2560°
revolutions per day: 14.82942994
mean anomaly at epoch: 288.8146°
orbit number at epoch: 66528

The dashed part of the orbit path shows where the satellite is in the earth's shadow,  

DLR